#timestamp,LO_Frequency,Hit,StdDev 
1569754815.2,286047002.1,N
1569754835.1,286047003.8,Y
1569754836.0,286047003.8,P
1569754855.8,286047003.8,N
1569754875.6,286047001.6,N
1569754895.5,286047001.5,N
1569754915.3,286047004.3,Y
1569754935.2,286047001.6,P
1569754955.9,286047004.4,P
1569754975.7,286047002.6,N
1569754995.6,286046999.7,N
1569755015.4,286047000.4,N
1569755035.2,286047000.7,N
1569755055.1,286046998.6,N
1569755056.0,286046998.6,N
1569755075.8,286046998.6,N
1569755095.7,286046999.3,N
1569755115.5,286046999.4,N
1569755135.3,286046996.9,N
1569755155.2,286046996.6,N
1569755175.0,286046996.8,N
1569755175.9,286046996.8,N
1569755195.8,286046999.4,N
1569755215.6,286046998.9,N
1569755235.5,286047001.0,N
1569755255.4,286046999.7,N
1569755275.2,286047000.2,N
1569755295.0,286047002.5,N
1569755295.9,286047002.5,N
1569755315.8,286047002.2,N
1569755335.6,286047001.9,N
1569755355.4,286047002.8,N
1569755375.3,286047001.9,N
1569755395.1,286047002.4,N
1569755415.9,286047001.2,N
1569755435.7,286046998.7,N
1569755455.5,286046998.7,N
1569755475.4,286046999.0,N
1569755495.2,286046997.2,N
1569755515.1,286046997.7,N
1569755516.0,286046997.7,N
1569755535.8,286046995.0,N
1569755555.6,286046997.4,N
1569755575.5,286046997.2,N
1569755595.3,286046997.2,N
1569755615.1,286046997.7,N
1569755635.9,286046998.0,N
1569755655.7,286046996.5,N
1569755675.6,286046996.6,N
1569755695.4,286046997.4,N
1569755715.2,286046998.0,N
1569755735.1,286046997.6,N
1569755736.0,286046997.6,N
1569755755.8,286046997.8,N
1569755775.7,286046995.9,N
1569755795.5,286046995.6,N
1569755815.3,286046993.6,N
1569755835.2,286046991.9,Y
1569755855.0,286046995.2,P
1569755855.9,286046995.2,N
1569755875.8,286046997.6,N
1569755895.6,286046995.7,N
1569755915.4,286046995.9,Y
1569755935.3,286046997.0,P
1569755955.1,286046997.1,P
1569755975.8,286046997.8,P
1569755995.7,286046995.0,Y
1569756015.5,286047000.8,P
1569756035.4,286047001.2,N
1569756055.2,286046999.9,N
1569756075.0,286047001.2,N
1569756076.0,286047001.2,N
1569756095.8,286047001.2,N
1569756115.6,286046998.7,N
1569756135.5,286046998.3,N
1569756155.3,286047001.2,N
1569756175.2,286046998.6,N
1569756195.9,286046999.7,N
1569756215.7,286046999.7,N
1569756235.6,286047003.8,N
1569756255.4,286047002.9,N
1569756275.2,286047005.9,Y
1569756295.1,286047003.6,P
1569756296.0,286047003.6,N
1569756315.8,286047003.6,N
1569756335.7,286047003.9,N
1569756355.5,286047001.4,N
1569756375.3,286047004.3,Y
1569756395.2,286046998.4,P
1569756415.0,286046999.4,N
1569756415.9,286046999.4,N
1569756435.8,286046999.0,N
1569756455.6,286047000.4,N
1569756475.4,286047000.4,N
1569756495.3,286047000.6,N
1569756515.1,286046999.9,N
1569756535.9,286046998.1,N
1569756555.7,286047001.2,N
1569756575.5,286047000.1,N
1569756595.4,286046999.8,N
1569756615.2,286046998.6,N
1569756635.0,286046999.1,N
1569756635.9,286046999.1,N
1569756655.8,286047000.9,N
1569756675.6,286047000.2,N
1569756695.5,286046999.9,N
1569756715.3,286046998.2,N
1569756735.1,286047000.7,N
1569756755.9,286046998.1,N
1569756775.7,286047001.1,N
1569756795.6,286047000.8,N
1569756815.4,286047000.4,N
1569756835.2,286047002.0,N
1569756855.1,286047002.7,N
1569756856.0,286047002.7,N
1569756875.8,286047002.8,N
1569756895.6,286046998.1,N
1569756915.5,286047001.0,N
1569756935.3,286047002.6,N
1569756955.2,286047001.7,N
1569756975.0,286047002.2,N
1569756975.9,286047002.2,N
1569756995.7,286047002.5,N
1569757015.6,286046999.7,N
1569757035.4,286047000.4,N
1569757055.3,286047000.8,N
1569757075.1,286046999.8,N
1569757095.8,286047002.2,N
1569757115.7,286047002.4,N
1569757135.5,286047002.6,N
1569757155.4,286047003.9,N
1569757175.2,286047001.9,N
1569757195.0,286047002.3,N
1569757195.9,286047002.3,N
1569757215.8,286047002.4,N
1569757235.6,286047002.5,N
1569757255.5,286047000.5,N
1569757275.3,286047000.5,N
1569757295.1,286047000.9,N
1569757315.9,286047000.4,N
1569757335.7,286047001.5,N
1569757355.6,286047003.0,N
1569757375.4,286047005.9,Y
1569757395.2,286047003.8,P
1569757415.1,286047001.3,N
1569757416.0,286047011.9,P
1569757435.8,286047002.3,N
1569757455.6,286047002.3,N
1569757475.5,286047002.4,N
1569757495.3,286047004.2,N
1569757515.2,286047003.1,N
1569757535.9,286047003.6,N
1569757555.7,286047006.1,N
1569757575.6,286047006.8,N
1569757595.4,286047008.3,N
1569757615.3,286047008.8,N
1569757635.1,286047008.4,N
1569757636.0,286047008.4,N
1569757655.8,286047007.4,N
1569757675.7,286047006.1,N
1569757695.5,286047004.9,N
1569757715.3,286047003.3,N
1569757735.2,286047003.2,N
1569757755.0,286047003.5,N
1569757755.9,286047003.5,N
1569757775.8,286047002.5,N
1569757795.6,286047002.7,N
1569757815.4,286047002.1,N
1569757835.3,286046999.9,N
1569757855.1,286047002.8,N
1569757875.9,286046999.8,N
1569757895.7,286047000.0,N
1569757915.5,286046999.7,N
1569757935.4,286047001.6,N
1569757955.2,286047001.9,N
1569757975.1,286047002.3,N
1569757976.0,286047002.3,N
1569757995.8,286047002.8,N
1569758015.6,286047002.4,N
1569758035.5,286047004.0,N
1569758055.3,286047005.4,N
1569758075.2,286047004.9,N
1569758095.9,286047003.7,N
1569758115.7,286047004.4,N
1569758135.6,286047004.4,N
1569758155.4,286047004.4,N
1569758175.2,286047003.1,N
1569758195.1,286047004.3,N
1569758196.0,286047004.3,N
1569758215.8,286047002.4,N
1569758235.7,286047000.3,N
1569758255.5,286046998.9,N
1569758275.3,286047000.6,N
1569758295.2,286047002.7,N
1569758315.0,286047002.5,N
1569758315.9,286047002.5,N
1569758335.8,286047004.4,N
1569758355.6,286047003.6,N
1569758375.4,286047004.2,N
1569758395.3,286047001.8,N
